{"data":{"norad_id":63951,"intl_designator":"2025-098AB","name":"STARLINK-33998","alt_names":[],"object_type":"PAYLOAD","status":"ACTIVE","operator":null,"country":"US","launch_date":"2025-05-13","launch_site_code":"AFWTR","launch_vehicle":null,"mission":null,"orbit_class":"UNKNOWN","rcs_meters":null,"size_class":null,"mass_kg":null,"dimensions":null,"purposes":["comms"],"wikipedia_slug":null,"has_3d_model":false,"image_url":null,"decayed_at":null,"tle_current":{"epoch":"2026-05-25T02:59:32.040096Z","epoch_age_seconds":54494,"freshness":"FRESH","line1":"1 63951U 25098AB  26145.12467639  .00003026  00000+0  26123-3 0  9991","line2":"2 63951  70.0009  81.6562 0003584 257.3723 102.7035 14.98339403 58004","mean_motion":14.98339403,"eccentricity":0.0003584,"inclination_deg":70.0009,"raan_deg":81.6562,"arg_perigee_deg":257.3723,"mean_anomaly_deg":102.7035,"bstar":0.00026123,"rev_number":5800,"period_min":96.106395995247,"perigee_km":569.53587438403,"apogee_km":574.51775180526,"semimajor_km":6950.1638130946,"source":"CELESTRAK","updated_at":"2026-05-25T13:38:20.209820Z"}}}